Aspen, CO

2:49 PM MDT on August 21, 2017 (GMT -0600)
Aspen-Pitkin County / Sardy Field

Weather History for KASE - August, 2013

Change the Weather History Date:

Saturday, August 31, 2013

  Actual Average Record
Temperature  
Mean Temperature 64 °F 58 °F  
Max Temperature 78 °F 74 °F 84 °F (1985)
Min Temperature 50 °F 43 °F 32 °F (1980)
Degree Days  
Heating Degree Days 1 7  
Month to date heating degree days 103 124  
Since 1 June heating degree days 281 425  
Since 1 July heating degree days 135 196  
Cooling Degree Days 0 0  
Month to date cooling degree days 4 10  
Year to date cooling degree days 60 39  
Since 1 June cooling degree days 60 39  
Growing Degree Days 14 (Base 50)    
Moisture  
Dew Point 50 °F    
Average Humidity 65    
Maximum Humidity 100    
Minimum Humidity 30    
Precipitation  
Precipitation 0.08 in 0.05 in 0.18 in (1999)
Month to date precipitation 1.61 1.68  
Year to date precipitation 9.96 11.46  
Sea Level Pressure  
Sea Level Pressure 30.05 in    
Wind  
Wind Speed 5 mph (SSE)    
Max Wind Speed 17 mph    
Max Gust Speed 23 mph    
Visibility 10 miles    
Events Rain , Thunderstorm    
T = Trace of Precipitation, MM = Missing Value Source: NWS Daily Summary

Daily Weather History Graph

Daily Weather History Graph

Search for Another Location

Airport or City:

Trip Planner

Search our weather history database for the weather conditions in past years. The results will help you decide how hot, cold, wet, or windy it might be!

Date:

Astronomy

Aug. 31, 2013 Rise Set
Actual Time 6:35 AM MDT 7:39 PM MDT
Civil Twilight 6:07 AM MDT 8:06 PM MDT
Nautical Twilight 5:35 AM MDT 8:39 PM MDT
Astronomical Twilight 5:01 AM MDT 9:13 PM MDT
Moon 2:07 AM MDT (8/31) 4:38 PM MDT (8/31)
Length of Visible Light 13h 58m
Length of Day
13h 03m
Waning Crescent, 20% of the Moon is Illuminated
Aug 31
Waning Crescent
Sep 5
New
Sep 12
First Quarter
Sep 19
Full
Sep 26
Last Quarter

Hourly Weather History & Observations

Time (MDT) Temp. Dew Point Humidity Pressure Visibility Wind Dir Wind Speed Gust Speed Precip Events Conditions
12:53 AM 54.0 °F 53.1 °F 97% 30.08 in 10.0 mi SSW 6.9 mph - N/A   Partly Cloudy
1:53 AM 57.0 °F 52.0 °F 83% 30.02 in 10.0 mi SSE 6.9 mph - 0.00 in   Overcast
2:53 AM 55.0 °F 52.0 °F 89% 29.99 in 10.0 mi SW 3.5 mph - 0.01 in   Partly Cloudy
3:53 AM 53.1 °F 51.1 °F 93% 30.01 in 10.0 mi Calm Calm - N/A   Overcast
4:53 AM 53.1 °F 51.1 °F 93% 30.00 in 10.0 mi Calm Calm - N/A   Overcast
5:53 AM 51.1 °F 48.9 °F 92% 30.07 in 10.0 mi SW 8.1 mph - N/A   Partly Cloudy
6:53 AM 50.0 °F 48.0 °F 93% 30.11 in 10.0 mi SSW 3.5 mph - N/A   Scattered Clouds
7:53 AM 55.0 °F 48.9 °F 80% 30.10 in 10.0 mi Variable 3.5 mph - N/A   Scattered Clouds
8:53 AM 57.9 °F 48.9 °F 72% 30.08 in 10.0 mi SE 4.6 mph - N/A   Mostly Cloudy
9:53 AM 60.1 °F 50.0 °F 69% 30.07 in 10.0 mi Calm Calm - N/A   Clear
10:53 AM 64.9 °F 50.0 °F 58% 30.05 in 10.0 mi Calm Calm - N/A   Mostly Cloudy
11:53 AM 71.1 °F 48.9 °F 45% 30.00 in 10.0 mi Variable 4.6 mph - N/A   Scattered Clouds
12:53 PM 75.9 °F 48.0 °F 37% 29.96 in 10.0 mi Variable 3.5 mph - N/A   Clear
1:53 PM 78.1 °F 45.0 °F 31% 29.91 in 10.0 mi Calm Calm - N/A   Mostly Cloudy
2:53 PM 73.9 °F 46.9 °F 38% 29.93 in 10.0 mi WSW 8.1 mph - N/A   Mostly Cloudy
3:53 PM 75.9 °F 44.1 °F 32% 29.91 in 10.0 mi SE 3.5 mph - N/A   Mostly Cloudy
4:53 PM 75.0 °F 45.0 °F 34% 29.90 in 10.0 mi SSE 11.5 mph 19.6 mph N/A   Overcast
5:53 PM 70.0 °F 46.0 °F 42% 29.94 in 10.0 mi SE 10.4 mph 18.4 mph N/A   Mostly Cloudy
6:53 PM 68.0 °F 46.9 °F 47% 29.97 in 10.0 mi SE 9.2 mph - N/A   Mostly Cloudy
7:53 PM 64.9 °F 48.9 °F 56% 30.01 in 10.0 mi Variable 3.5 mph - N/A   Overcast
8:07 PM 64.4 °F 48.2 °F 56% 30.36 in 10.0 mi Calm Calm - 0.00 in Rain , Thunderstorm Light Rain
8:21 PM 57.2 °F 53.6 °F 88% 30.36 in 6.0 mi ESE 15.0 mph 23.0 mph 0.02 in Rain Light Rain
8:27 PM 57.2 °F 53.6 °F 88% 30.37 in 6.0 mi SSE 13.8 mph 23.0 mph 0.03 in Rain , Thunderstorm Light Rain
8:53 PM 57.9 °F 53.1 °F 84% 30.07 in 10.0 mi SE 9.2 mph - 0.04 in Rain Light Rain
9:53 PM 57.9 °F 53.1 °F 84% 30.09 in 10.0 mi South 10.4 mph - 0.00 in   Overcast
10:53 PM 55.9 °F 54.0 °F 93% 30.06 in 10.0 mi SE 9.2 mph - 0.02 in Rain Light Rain
11:53 PM 55.9 °F 53.1 °F 90% 30.01 in 10.0 mi SE 8.1 mph - 0.01 in   Mostly Cloudy